Location: ?????????
(54.7630°N, 39.4991°E)
Time: 15:53:14
(UTC+00:00)

Meteor 2-1 Rocket - Pass Details

Date: 14 April 2026
Orbit: 824 x 910 km, 81.3° (Epoch: 17 May)

Event Time Altitude Azimuth Distance (km) Brightness Sun altitude
Exits shadow 20:53:53 59° 133° (SE) 1,037 4.3 -25.3°
Maximum altitude 20:54:34 64° 98° (E) 995 4.4 -25.3°
Drops below altitude 10° 21:00:20 10° 19° (NNE) 2,560 7.5 -25.4°
Sets 21:02:47 0° 16° (NNE) 3,490 8.5 -25.5°
